Location: Newark
(34.3481°N, 134.0494°E)
Time: 03:36:16
(UTC+00:00)

Vanguard 3 - Pass Details

Date: 30 January 2020
Orbit: 508 x 3263 km, 33.3° (Epoch: 17 February)

Event Time Altitude Azimuth Distance (km) Brightness Sun altitude
Rises 03:31:54 0° 189° (S) 5,352 12.3 37.7°
Reaches altitude 10° 03:36:18 10° 174° (S) 4,793 12.3 37.6°
Maximum altitude 03:46:21 22° 130° (SE) 4,632 11.6 37.4°
Drops below altitude 10° 03:58:50 10° 89° (E) 6,132 11.6 36.9°
Sets 04:05:30 0° 77° (ENE) 7,234 11.8 36.6°
